Home   Weather   Shreveport   Past weeks
Flag for USA

Past Weather in Shreveport, Louisiana, USA — Yesterday and Last 2 Weeks

Now
68 °F

Overcast.


Feels Like: 68 °F
Forecast: 86 / 72 °F
Wind: 13 mph from Southwest

Location: Shreveport Regional Airport

Current Time: May 19, 2019 at 3:35:46 am

Latest Report: May 19, 2019 at 2:56 am


Visibility: 10 mi

Pressure: 29.75 "Hg

Humidity: 93%

Dew Point: 66 °F

Location of ShreveportLocation

Past Weather in Shreveport — Graph

°F

Shreveport Temperature Yesterday

Maximum temperature yesterday: 86 °F (at 3:56 pm)
Minimum temperature yesterday: 67 °F (at 11:56 pm)
Average temperature yesterday: 76 °F

High & Low Weather Summary for the Past Weeks

 TemperatureHumidityPressure
High87 °F (May 16, 2:56 pm)100% (May 5, 6:17 am)30.05 "Hg (May 5, 6:17 am)
Low56 °F (May 13, 5:56 am)35% (May 13, 1:56 pm)29.67 "Hg (May 8, 6:56 pm)
Average71 °F78%29.89 "Hg
* Reported May 4 1:12 am — May 19 1:56 am, Shreveport. Weather by CustomWeather, © 2019

Note: Actual official high and low records may vary slightly from our data, if they occured in-between our weather recording intervals... More about our weather records

Advertising

Shreveport Weather History for the Previous 24 Hours

Scroll right to see more
 ConditionsComfort  
Time TempWeatherWind HumidityBarometerVisibility
1:56 am
Sun, May 19
68 °FMostly cloudy.8 mph96%29.75 "Hg10 mi
1:37 am68 °FPartly cloudy.8 mph96%29.74 "Hg10 mi
1:10 am68 °FThunderstorms. Passing clouds.3 mph93%29.74 "Hg10 mi
12:56 am68 °FThunderstorms. Mostly cloudy.7 mph93%29.70 "Hg10 mi
11:56 pm
Sat, May 18
67 °FThunderstorms. Overcast.10 mph93%29.75 "Hg7 mi
10:56 pm74 °FThunderstorms. Fog.28 mph91%29.72 "Hg6 mi
9:56 pm69 °FThunderstorms. Mostly cloudy.12 mph87%29.75 "Hg7 mi
8:56 pm71 °FThunderstorms. Mostly cloudy.13 mph76%29.73 "Hg10 mi
8:35 pm70 °FThunderstorms. Mostly cloudy.20 mph79%29.79 "Hg10 mi
7:59 pm81 °FThunderstorms. More clouds than sun.10 mph69%29.75 "Hg10 mi
6:56 pm83 °FPartly sunny.13 mph65%29.73 "Hg10 mi
5:56 pm84 °FPartly sunny.14 mph65%29.71 "Hg10 mi
4:56 pm85 °FBroken clouds.10 mph65%29.71 "Hg10 mi
3:56 pm86 °FBroken clouds.12 mph63%29.73 "Hg10 mi
2:56 pm85 °FPartly sunny.12 mph65%29.75 "Hg10 mi
1:56 pm85 °FBroken clouds.15 mph63%29.78 "Hg10 mi
12:56 pm84 °FPartly sunny.14 mph67%29.80 "Hg10 mi
11:56 am83 °FScattered clouds.17 mph70%29.80 "Hg10 mi
11:37 am81 °FCloudy.9 mph74%29.83 "Hg10 mi
10:56 am79 °FMostly cloudy.8 mph77%29.82 "Hg10 mi
10:10 am77 °FMostly cloudy.10 mph79%29.84 "Hg10 mi
9:56 am75 °FOvercast.12 mph85%29.83 "Hg10 mi
9:06 am74 °FMostly cloudy.10 mph88%29.86 "Hg10 mi
8:21 am73 °FLow clouds.10 mph88%29.86 "Hg10 mi
7:56 am72 °FPartly sunny.9 mph91%29.85 "Hg10 mi
7:37 am72 °FPartly sunny.13 mph87%29.85 "Hg10 mi
6:56 am70 °FBroken clouds.9 mph90%29.83 "Hg10 mi
5:56 am69 °FPassing clouds.9 mph93%29.83 "Hg10 mi
5:17 am70 °FPassing clouds.8 mph90%29.85 "Hg10 mi
4:56 am70 °FPassing clouds.7 mph90%29.84 "Hg10 mi
3:56 am70 °FPassing clouds.7 mph90%29.83 "Hg10 mi
Weather by CustomWeather, © 2019

See weather overview